Regional Weather Roundup
Issued by NWS

Home | Current Version | Previous Version | Text Only | Print | Product List | Glossary On
Versions: 1 2 3 4 5 6 7 8 9 10 11 12 13 14 15 16 17 18 19 20 21 22 23 24 25 26 27 28 29 30 31 32 33 34 35 36 37 38 39 40 41 42 43 44 45 46 47 48 49 50
000
ASUS43 KDMX 230601
RWRIA

WEATHER ROUNDUP FOR IOWA
NATIONAL WEATHER SERVICE DES MOINES IA
100 AM CDT THU MAR 23 2017

NOTE: "FAIR" INDICATES FEW OR NO CLOUDS BELOW 12,000 FEET WITH NO
SIGNIFICANT WEATHER AND/OR OBSTRUCTIONS TO VISIBILITY.

* - THESE STATIONS ARE NOT NWS STATIONS...THUS NOT UNDER NWS
QUALITY CONTROL.  THEY ALSO DO NOT REPORT WEATHER SUCH
AS PRECIPITATION OR FOG.

IAZ001>003-012>014-020>022-031>034-043>046-230700-
   NORTHWEST IOWA

CITY           SKY/WX    TMP DP  RH WIND       PRES   REMARKS
SIOUX CITY     CLOUDY    42  26  53 SE13      30.12S
6HR MIN TEMP:  41; 6HR MAX TEMP:  45;

SPENCER        CLOUDY    39  25  57 SE16G25   30.16F WCI  30
6HR MIN TEMP:  38; 6HR MAX TEMP:  39;

STORM LAKE *   CLOUDY    39  25  56 SE17G24   30.15S WCI  30
$$

IAZ055>058-069>071-079>083-090>094-230700-
   SOUTHWEST IOWA

CITY           SKY/WX    TMP DP  RH WIND       PRES   REMARKS
LAMONI         CLOUDY    44  14  29 SE13G21   30.21F
6HR MIN TEMP:  42; 6HR MAX TEMP:  45;

$$

IAZ047>049-059>061-072>074-084-230700-
   CENTRAL IOWA

CITY           SKY/WX    TMP DP  RH WIND       PRES   REMARKS
AMES           CLOUDY    39  21  48 SE13      30.24F WCI  31
6HR MIN TEMP:  39; 6HR MAX TEMP:  43;

GRINNELL*      CLOUDY    38  19  46 SE15      30.28F WCI  29
MARSHALLTOWN   MOCLDY    38  21  50 SE16      30.26F WCI  29
6HR MIN TEMP:  38; 6HR MAX TEMP:  41;

PELLA *        CLOUDY    39  18  43 SE9       30.28F WCI  33
PERRY *        CLOUDY    40  16  37 SE18      30.19F WCI  31
$$

IAZ004>006-015-016-023>025-035-036-230700-
   NORTH CENTRAL IOWA

CITY           SKY/WX    TMP DP  RH WIND       PRES   REMARKS
ESTHERVILLE    CLOUDY    35  25  66 SE16      30.17F WCI  25
6HR MIN TEMP:  34; 6HR MAX TEMP:  35;

MASON CITY     CLOUDY    35  22  58 SE17      30.24F WCI  25
6HR MIN TEMP:  35; 6HR MAX TEMP:  38;

IOWA FALLS *   CLOUDY    38  22  51 SE15      30.26R WCI  30
$$

IAZ007>011-017>019-026>030-037>042-050>054-066-230700-
   NORTHEAST IOWA

CITY           SKY/WX    TMP DP  RH WIND       PRES   REMARKS
CEDAR RAPIDS   PTCLDY    34  22  61 SE16      30.32F WCI  24
6HR MIN TEMP:  34; 6HR MAX TEMP:  40;

CHARLES CITY * CLOUDY    36  21  55 SE15G22   30.28F WCI  26
DUBUQUE        CLOUDY    35  20  54 SE16G23   30.37R WCI  25
6HR MIN TEMP:  35; 6HR MAX TEMP:  38;

$$

IAZ064-065-067-068-078-230700-
   EAST CENTRAL IOWA

CITY           SKY/WX    TMP DP  RH WIND       PRES   REMARKS
DAVENPORT      CLOUDY    35  19  52 SE16      30.38S WCI  25
6HR MIN TEMP:  35; 6HR MAX TEMP:  40;

IOWA CITY      PTCLDY    37  22  54 SE9       30.36S WCI  30
6HR MIN TEMP:  36; 6HR MAX TEMP:  43;

QUAD CITIES    PTCLDY    35  21  56 E12       30.38F WCI  27
6HR MIN TEMP:  35; 6HR MAX TEMP:  41;

$$

IAZ062-063-075>077-085>089-095>099-230700-
   SOUTHEAST IOWA

CITY           SKY/WX    TMP DP  RH WIND       PRES   REMARKS
OTTUMWA        CLOUDY    40  16  37 SE15      30.28S WCI  32
6HR MIN TEMP:  38; 6HR MAX TEMP:  45;

$$

ABBREVIATIONS USED IN REMARKS
   TC - TEMPERATURES IN CELSIUS
  WCI - WIND CHILL INDEX
   HX - HEAT INDEX
  VSB - VISIBILITY
$$





USA.gov is the U.S. government's official web portal to all federal, state and local government web resources and services.